Sister Bay, Wisconsin, United States (54234)
Lat: 45.19N, Lon: 87.12W
Wx Zone: WIZ022
Local Info
Past Weather Observations for Sunday, November 16, 2014

NOTE: This archive is for the closest National Weather Service station to Sister Bay. Information may differ from the station used for current weather conditions.

Click here for Long-term Archive

Time Weather Temperature Dewpoint Humidity Pressure Winds Precip Visibility
23:55
Overcast
Light Snow
9°F / -13°C 3°F / -16°C 78% 29.71 in
(1006 mb)
W 10.4 mph
(W 17 kph)
- 10SM
23:35
Overcast
Light Snow
9°F / -13°C 3°F / -16°C 78% 29.71 in
(1006 mb)
W 10.4 mph
(W 17 kph)
- 10SM
23:15
Overcast
Light Snow
9°F / -13°C 5°F / -15°C 85% 29.71 in
(1006 mb)
W 11.5 mph
(W 19 kph)
- 7SM
22:55
Overcast
Light Snow
9°F / -13°C 5°F / -15°C 85% 29.71 in
(1006 mb)
W 10.4 mph
(W 17 kph)
- 7SM
22:35
Overcast
10°F / -12°C 3°F / -16°C 72% 29.71 in
(1006 mb)
SSW 12.7 mph
(SSW 20 kph)
- 10SM
22:15
Overcast
10°F / -12°C 3°F / -16°C 72% 29.74 in
(1007 mb)
W 11.5 mph
(W 19 kph)
- 10SM
21:55
Overcast
10°F / -12°C 3°F / -16°C 72% 29.74 in
(1007 mb)
SSW 10.4 mph
(SSW 17 kph)
- 10SM
21:35
Mostly Cloudy
9°F / -13°C 3°F / -16°C 78% 29.74 in
(1007 mb)
SSW 10.4 mph
(SSW 17 kph)
- 10SM
21:15
Clear
10°F / -12°C 3°F / -16°C 72% 29.74 in
(1007 mb)
SSW 11.5 mph
(SSW 19 kph)
- 10SM
20:55
Clear
12°F / -11°C 3°F / -16°C 67% 29.74 in
(1007 mb)
SSW 15 mph
(SSW 24 kph)
- 10SM
20:35
Partly Cloudy
12°F / -11°C 7°F / -14°C 79% 29.74 in
(1007 mb)
SSW 18.4 mph
(SSW 30 kph)
- 10SM
20:15
Partly Cloudy
12°F / -11°C 10°F / -12°C 92% 29.74 in
(1007 mb)
SSW 8.1 mph
(SSW 13 kph)
- 10SM
19:55
Clear
12°F / -11°C 9°F / -13°C 85% 29.74 in
(1007 mb)
SW 5.8 mph
(SW 9 kph)
- 10SM
19:35
Clear
14°F / -10°C 10°F / -12°C 85% 29.74 in
(1007 mb)
SW 8.1 mph
(SW 13 kph)
- 10SM
19:15
Clear
14°F / -10°C 10°F / -12°C 85% 29.74 in
(1007 mb)
SW 9.2 mph
(SW 15 kph)
- 10SM
18:55
Clear
14°F / -10°C 9°F / -13°C 79% 29.74 in
(1007 mb)
SW 8.1 mph
(SW 13 kph)
- 10SM
18:35
Clear
14°F / -10°C 10°F / -12°C 85% 29.74 in
(1007 mb)
SW 9.2 mph
(SW 15 kph)
- 10SM
18:15
Clear
14°F / -10°C 10°F / -12°C 85% 29.77 in
(1008 mb)
SW 8.1 mph
(SW 13 kph)
- 10SM
17:55
Partly Cloudy
16°F / -9°C 10°F / -12°C 79% 29.77 in
(1008 mb)
SSE 9.2 mph
(SSE 15 kph)
- 10SM
17:35
Overcast
16°F / -9°C 12°F / -11°C 86% 29.77 in
(1008 mb)
SSE 9.2 mph
(SSE 15 kph)
- 10SM
17:15
Overcast
18°F / -8°C 12°F / -11°C 79% 29.77 in
(1008 mb)
SW 9.2 mph
(SW 15 kph)
- 10SM
16:55
Mostly Cloudy
16°F / -9°C 12°F / -11°C 86% 29.77 in
(1008 mb)
SW 8.1 mph
(SW 13 kph)
- 10SM
16:35
Mostly Cloudy
18°F / -8°C 12°F / -11°C 79% 29.77 in
(1008 mb)
S 9.2 mph
(S 15 kph)
- 10SM
16:15
Mostly Cloudy
19°F / -7°C 14°F / -10°C 79% 29.8 in
(1009 mb)
SW 9.2 mph
(SW 15 kph)
- 10SM
15:55
Mostly Cloudy
19°F / -7°C 14°F / -10°C 79% 29.77 in
(1008 mb)
SSW 15 mph
(SSW 24 kph)
- 10SM
15:35
Overcast
19°F / -7°C 16°F / -9°C 86% 29.8 in
(1009 mb)
SSW 11.5 mph
(SSW 19 kph)
- 10SM
15:15
Overcast
Light Snow
21°F / -6°C 16°F / -9°C 80% 29.8 in
(1009 mb)
SW 10.4 mph
(SW 17 kph)
- 5SM
14:55
Overcast
Light Snow
21°F / -6°C 16°F / -9°C 80% 29.8 in
(1009 mb)
SW 15 mph
(SW 24 kph)
- 5SM
14:35
Overcast
Light Snow
21°F / -6°C 18°F / -8°C 86% 29.8 in
(1009 mb)
SSW 11.5 mph
(SSW 19 kph)
- 5SM
14:15
Overcast
Light Snow
19°F / -7°C 18°F / -8°C 93% 29.8 in
(1009 mb)
SW 9.2 mph
(SW 15 kph)
- 4SM
13:55
Overcast
Light Snow
19°F / -7°C 18°F / -8°C 93% 29.8 in
(1009 mb)
SSW 11.5 mph
(SSW 19 kph)
- 4SM
13:35
Overcast
Light Snow
19°F / -7°C 16°F / -9°C 86% 29.8 in
(1009 mb)
SW 11.5 mph
(SW 19 kph)
- 3SM
13:15
Overcast
Light Snow
19°F / -7°C 16°F / -9°C 86% 29.8 in
(1009 mb)
SW 10.4 mph
(SW 17 kph)
- 3SM
12:55
Overcast
Light Snow
19°F / -7°C 16°F / -9°C 86% 29.83 in
(1010 mb)
SW 9.2 mph
(SW 15 kph)
- 4SM
12:35
Overcast
Fog And Mist
19°F / -7°C 16°F / -9°C 86% 29.83 in
(1010 mb)
SW 12.7 mph
(SW 20 kph)
- 5SM
12:15
Overcast
19°F / -7°C 16°F / -9°C 86% 29.83 in
(1010 mb)
SW 13.8 mph
(SW 22 kph)
- 7SM
11:55
Overcast
Fog And Mist
19°F / -7°C 16°F / -9°C 86% 29.83 in
(1010 mb)
SW 15 mph
(SW 24 kph)
- 5SM
11:35
Overcast
Fog And Mist
19°F / -7°C 16°F / -9°C 86% 29.83 in
(1010 mb)
SW 12.7 mph
(SW 20 kph)
- 5SM
11:15
Overcast
Fog And Mist
19°F / -7°C 16°F / -9°C 86% 29.86 in
(1011 mb)
SW 17.3 mph
(SW 28 kph)
- 5SM
10:55
Overcast
19°F / -7°C 16°F / -9°C 86% 29.86 in
(1011 mb)
SW 11.5 mph
(SW 19 kph)
- 10SM
10:35
Overcast
19°F / -7°C 16°F / -9°C 86% 29.89 in
(1012 mb)
SSW 11.5 mph
(SSW 19 kph)
- 10SM
10:15
Overcast
19°F / -7°C 16°F / -9°C 86% 29.89 in
(1012 mb)
SW 10.4 mph
(SW 17 kph)
- 10SM
09:55
Overcast
18°F / -8°C 16°F / -9°C 93% 29.89 in
(1012 mb)
SW 9.2 mph
(SW 15 kph)
- 7SM
09:35
Overcast
18°F / -8°C 16°F / -9°C 93% 29.92 in
(1013 mb)
SW 13.8 mph
(SW 22 kph)
- 7SM
09:15
Overcast
18°F / -8°C 14°F / -10°C 86% 29.92 in
(1013 mb)
SW 11.5 mph
(SW 19 kph)
- 7SM
08:55
Overcast
18°F / -8°C 14°F / -10°C 86% 29.92 in
(1013 mb)
SW 10.4 mph
(SW 17 kph)
- 7SM
08:35
Overcast
Fog And Mist
18°F / -8°C 14°F / -10°C 86% 29.92 in
(1013 mb)
SW 9.2 mph
(SW 15 kph)
- 5SM
08:15
Overcast
16°F / -9°C 14°F / -10°C 93% 29.92 in
(1013 mb)
SW 10.4 mph
(SW 17 kph)
- 7SM
07:55
Mostly Cloudy
Light Snow
16°F / -9°C 14°F / -10°C 93% 29.95 in
(1014 mb)
SW 9.2 mph
(SW 15 kph)
- 7SM
07:35
Overcast
Light Snow
16°F / -9°C 14°F / -10°C 93% 29.95 in
(1014 mb)
SW 8.1 mph
(SW 13 kph)
- 2SM
07:15
Overcast
Light Snow
16°F / -9°C 14°F / -10°C 93% 29.95 in
(1014 mb)
SW 9.2 mph
(SW 15 kph)
- 2 1/2SM
06:55
Overcast
Fog And Mist
16°F / -9°C 14°F / -10°C 93% 29.95 in
(1014 mb)
SW 9.2 mph
(SW 15 kph)
- 4SM
06:35
Overcast
Light Snow
16°F / -9°C 14°F / -10°C 93% 29.95 in
(1014 mb)
SW 8.1 mph
(SW 13 kph)
- 5SM
06:15
Overcast
Light Snow
16°F / -9°C 14°F / -10°C 93% 29.95 in
(1014 mb)
SW 10.4 mph
(SW 17 kph)
- 2SM
05:55
Overcast
Light Snow
16°F / -9°C 14°F / -10°C 93% 29.95 in
(1014 mb)
SW 9.2 mph
(SW 15 kph)
- 2 1/2SM
05:35
Overcast
16°F / -9°C 14°F / -10°C 93% 29.95 in
(1014 mb)
SW 10.4 mph
(SW 17 kph)
- 10SM
05:15
Overcast
16°F / -9°C 14°F / -10°C 93% 29.95 in
(1014 mb)
SW 9.2 mph
(SW 15 kph)
- 7SM
04:55
Mostly Cloudy
12°F / -11°C 12°F / -11°C 100% 29.95 in
(1014 mb)
SW 8.1 mph
(SW 13 kph)
- 10SM
04:35
Partly Cloudy
12°F / -11°C 10°F / -12°C 92% 29.95 in
(1014 mb)
SW 6.9 mph
(SW 11 kph)
- 10SM
04:15
Partly Cloudy
Light Snow
14°F / -10°C 12°F / -11°C 92% 29.98 in
(1015 mb)
SW 6.9 mph
(SW 11 kph)
- 7SM
03:55
Mostly Cloudy
Light Snow
14°F / -10°C 12°F / -11°C 92% 29.98 in
(1015 mb)
SW 6.9 mph
(SW 11 kph)
- 4SM
03:35
Overcast
Light Snow
16°F / -9°C 14°F / -10°C 93% 29.98 in
(1015 mb)
SW 6.9 mph
(SW 11 kph)
- 4SM
03:15
Overcast
Light Snow
16°F / -9°C 14°F / -10°C 93% 29.98 in
(1015 mb)
SW 6.9 mph
(SW 11 kph)
- 2 1/2SM
02:55
Overcast
Light Snow
16°F / -9°C 14°F / -10°C 93% 29.98 in
(1015 mb)
SW 6.9 mph
(SW 11 kph)
- 5SM
02:35
Overcast
Light Snow
16°F / -9°C 14°F / -10°C 93% 30.01 in
(1016 mb)
SSE 8.1 mph
(SSE 13 kph)
- 5SM
02:15
Overcast
Light Snow
16°F / -9°C 14°F / -10°C 93% 30.01 in
(1016 mb)
S 5.8 mph
(S 9 kph)
- 2 1/2SM
01:55
Overcast
Light Snow
16°F / -9°C 14°F / -10°C 93% 30.04 in
(1017 mb)
SW 8.1 mph
(SW 13 kph)
- 3SM
01:35
Mostly Cloudy
Light Snow
16°F / -9°C 14°F / -10°C 93% 30.04 in
(1017 mb)
SW 6.9 mph
(SW 11 kph)
- 10SM
01:15
Partly Cloudy
Light Snow
14°F / -10°C 12°F / -11°C 92% 30.04 in
(1017 mb)
SW 6.9 mph
(SW 11 kph)
- 4SM
00:55
Overcast
Fog And Mist
14°F / -10°C 12°F / -11°C 92% 30.06 in
(1018 mb)
SW 5.8 mph
(SW 9 kph)
- 5SM
00:35
Overcast
Light Snow
16°F / -9°C 14°F / -10°C 93% 30.06 in
(1018 mb)
SW 5.8 mph
(SW 9 kph)
- 3SM
00:15
Overcast
Light Snow
16°F / -9°C 14°F / -10°C 93% 30.06 in
(1018 mb)
SSW 5.8 mph
(SSW 9 kph)
- 2SM
Time Weather Temperature Dewpoint Humidity Pressure Winds Precip Visibility


Weather for websites

WeatherForYou.com, LLC is not responsible for any damages or problems caused by this service. Current weather conditions are obtained from the closest station including government and personal stations which may have varying degrees of accuracy. Weather forecasts are derived from the NOAA NDFD. Like all things, this site belongs to Jesus Christ... He just trusts me to maintain it. If you have any questions or comments email webmaster@weatherforyou.com

Copyright © 2014, WeatherForYou.com LLC. All rights reserved.